Regional Weather Roundup
Issued by NWS

Home | Current Version | Previous Version | Text Only | Print | Product List | Glossary On
Versions: 1 2 3 4 5 6 7 8 9 10 11 12 13 14 15 16 17 18 19 20 21 22 23 24 25 26 27 28 29 30 31 32 33 34 35 36 37 38 39 40 41 42 43 44 45 46 47 48 49 50
000
ASUS45 KABQ 291810
RWRNM
NEW MEXICO REGIONAL WEATHER ROUNDUP
NATIONAL WEATHER SERVICE ALBUQUERQUE NM
1200 PM MDT FRI JUL 29 2016

NOTE: "FAIR" MEANS FEW OR NO CLOUDS BELOW 12,000 FEET AGL WITH NO
       SIGNIFICANT WEATHER OR OBSTRUCTIONS TO VISION.

      THIS PRODUCT IS RELEASED AS TWO VERSIONS.  ONE VERSION NEAR
      THE TOP OF THE HOUR CONTAINING PRELIMINARY DATA FROM ALBUQUERQUE
      AND OTHER STATIONS.  A FINAL VERSION WITH ADDITIONAL DATA IS
      ISSUED ABOUT 10 MINUTES AFTER THE HOUR.

NMZ501-503-504-510>518-291900-
NORTHWEST PLATEAU/NORTHCENTRAL MOUNTAINS

CITY           SKY/WX    TMP DP  RH WIND       PRES   REMARKS
FARMINGTON     FAIR      90  37  15 VRB3      30.14F
6HR MIN TEMP:  67; 6HR MAX TEMP:  90;

LOS ALAMOS     FAIR      79  44  29 S14G21    30.31S
SANTA FE       NOT AVBL
TAOS           FAIR      82  41  23 SW9G21    30.29F
ANGEL FIRE     FAIR      78  42  27 W18G24    30.37F

$$
NMZ402-403-502-505>509-291900-
WESTCENTRAL MOUNTAINS/SOUTHWEST MOUNTAINS

CITY           SKY/WX    TMP DP  RH WIND       PRES   REMARKS
GALLUP         FAIR      90  40  17 W13G18    30.23F
6HR MIN TEMP:  55; 6HR MAX TEMP:  91;

GRANTS         FAIR      84  43  24 CALM      30.26F
SILVER CITY    FAIR      85  53  33 SE7       30.20F

$$
NMZ407-409-411-412-291900-
SOUTHERN DESERTS

CITY           SKY/WX    TMP DP  RH WIND       PRES   REMARKS
LORDSBURG      FAIR      91  52  25 SE8G18    30.10S
DEMING         FAIR      91  55  29 SE10      30.11
6HR MIN TEMP:  71; 6HR MAX TEMP:  92;

LAS CRUCES     FAIR      88  50  27 CALM      30.15F
HOLLOMAN AFB   FAIR      91  55  29 NW6       30.10F
ALAMOGORDO     FAIR      90  54  29 NE3       30.13S
T OR C         FAIR      89  53  29 S7        30.14F
6HR MIN TEMP:  70; 6HR MAX TEMP:  90;


$$
NMZ519>523-291900-
CENTRAL VALLEYS/CENTRAL HIGHLANDS

CITY           SKY/WX    TMP DP  RH WIND       PRES   REMARKS
ALBUQUERQUE    FAIR      89  51  27 S16G25    30.18S
6HR MIN TEMP:  70; 6HR MAX TEMP:  89;

DOUBLE EAGLE   MOSUNNY   90  52  27 SE14G24   30.22F
MORIARTY ARPT  FAIR      84  41  21 S17G28    30.28F
6HR MIN TEMP:  56; 6HR MAX TEMP:  84;

CLINES CORNERS FAIR      79  42  26 S25G35    30.33F
6HR MIN TEMP:  61; 6HR MAX TEMP:  79;

BELEN          FAIR      89  50  26 S16G24    30.17F
6HR MIN TEMP:  69; 6HR MAX TEMP:  89;

SOCORRO        FAIR      86  53  31 SE21      30.17F
6HR MIN TEMP:  67; 6HR MAX TEMP:  88;


$$
NMZ524>526-539-540-291900-
SOUTHCENTRAL MOUNTAINS

CITY           SKY/WX    TMP DP  RH WIND       PRES   REMARKS
RUIDOSO          N/A     81  45  28 SE9G18    30.38S

$$
NMZ527>531-291900-
NORTHEAST HIGHLANDS/NORTHEAST PLAINS

CITY           SKY/WX    TMP DP  RH WIND       PRES   REMARKS
LAS VEGAS      FAIR      83  47  28 S22G30    30.28F
6HR MIN TEMP:  58; 6HR MAX TEMP:  83; 6HR PCP:  0.08;

RATON          FAIR      80  53  39 S10G18    30.22F
6HR MIN TEMP:  56; 6HR MAX TEMP:  80;

CLAYTON        FAIR      86  59  39 SE15G24   30.18F
6HR MIN TEMP:  60; 6HR MAX TEMP:  86;


$$
NMZ532>537-291900-
EASTCENTRAL PLAINS

CITY           SKY/WX    TMP DP  RH WIND       PRES   REMARKS
TUCUMCARI      FAIR      94  54  25 SE18G24   30.10F
6HR MIN TEMP:  71; 6HR MAX TEMP:  94;

CANNON AFB     PTSUNNY   88  58  36 SE8       30.17R
6HR MIN TEMP:  67; 6HR MAX TEMP:  90;

CLOVIS AIRPORT FAIR      90  59  35 SE13G20   30.18R

$$
NMZ028-029-538-291900-
SOUTHEAST PLAINS

CITY           SKY/WX    TMP DP  RH WIND       PRES   REMARKS
ROSWELL        FAIR      92  55  28 SE8       30.11F
6HR MIN TEMP:  66; 6HR MAX TEMP:  92;

ARTESIA        FAIR      90  59  35 E10       30.13S
CARLSBAD       FAIR      90  58  33 SE8G20    30.09F
6HR MIN TEMP:  66; 6HR MAX TEMP:  91;

HOBBS          MOSUNNY   90  55  31 E13       30.15S


$$




USA.gov is the U.S. government's official web portal to all federal, state and local government web resources and services.